Regional Weather Roundup
Issued by NWS

Home | Current Version | Previous Version | Text Only | Print | Product List | Glossary On
Versions: 1 2 3 4 5 6 7 8 9 10 11 12 13 14 15 16 17 18 19 20 21 22 23 24 25 26 27 28 29 30 31 32 33 34 35 36 37 38 39 40 41 42 43 44 45 46 47 48 49 50
000
ASUS43 KBIS 290502
RWRND

NORTH DAKOTA REGIONAL WEATHER ROUNDUP
NATIONAL WEATHER SERVICE BISMARCK ND
1200 AM CDT WED JUL 29 2015

NOTE: "FAIR" INDICATES FEW OR NO CLOUDS BELOW 12,000 FEET WITH NO
SIGNIFICANT WEATHER AND/OR OBSTRUCTIONS TO VISIBILITY.


NDZ001>003-009>011-017-290600-
NORTHWEST NORTH DAKOTA

CITY           SKY/WX    TMP DP  RH WIND       PRES   REMARKS
WILLISTON      CLOUDY    59  51  75 W15       29.90R
MINOT          LGT RAIN  61  49  64 W37G51    29.70R
MINOT AFB      CLOUDY    61  54  77 W30G47    29.67R
$$

NDZ018>021-031>035-040>046-290600-
SOUTHWEST NORTH DAKOTA

CITY           SKY/WX    TMP DP  RH WIND       PRES   REMARKS
BISMARCK       PTCLDY    62  49  62 W25G36    29.89F
DICKINSON      PTCLDY    50  47  89 W7        29.96S
GARRISON         N/A     60  50  69 W28G41    29.81R
HETTINGER ARPT CLEAR     56  42  59 W14       30.04R
$$

NDZ004>008-012>016-024-026-027-054-290600-
NORTHEAST NORTH DAKOTA

CITY           SKY/WX    TMP DP  RH WIND       PRES   REMARKS
GRAND FORKS    CLOUDY    64  53  67 SW26G40   29.56S
DEVILS LAKE    CLOUDY    61  52  72 W39G53    29.54R
$$

NDZ022-023-025-028>030-036>039-047>053-290600-
SOUTHEAST NORTH DAKOTA

CITY           SKY/WX    TMP DP  RH WIND       PRES   REMARKS
FARGO          FAIR      67  47  48 SW21G33   29.72F
JAMESTOWN      CLOUDY    63  47  55 W35G49    29.75S
$$



USA.gov is the U.S. government's official web portal to all federal, state and local government web resources and services.